Flag for U.S.A. Weather past 2 weeks in Grand Rapids, Michigan, U.S.A.

Now
29 °F

Overcast.


Feels Like: 20 °F
Forecast: 29 / 34 °F
Wind: 10 mph from West

Location: Kent County International Airport

Current Time: Dec 17, 2014 at 11:43:41 PM

Latest Report: Dec 17, 2014 at 10:53 PM


Visibility: 10 mi

Pressure: 30.20 "Hg

Humidity: 72%

Dew point: 21 °F

Location of Grand RapidsLocation

Historic Weather in Grand Rapids — Graph

°F

Grand Rapids temperature yesterday

Maximum temperature yesterday: 45 °F (at 11:53 AM)
Minimum temperature yesterday: 33 °F (at 11:53 PM)
Average temperature yesterday: 41 °F

Past Weeks' High & Low Weather Summary

 TemperatureHumidityPressure
High49 °F (Dec 15, 2:53 PM)100% (Dec 13, 4:53 PM)30.72 "Hg (Dec 13, 4:53 PM)
Low20 °F (Dec 7, 6:53 AM)47% (Dec 6, 3:53 PM)29.66 "Hg (Dec 16, 6:53 AM)
Average34 °F80%30.20 "Hg
* Reported Dec 2 9:53 PM — Dec 17 9:53 PM, Grand Rapids, Weather by CustomWeather, © 2014

Note: Actual official high and low records may vary slightly from our data, if they occured in-between our weather recording intervals... More about our weather records

Advertising

Grand Rapids weather history for previous 24 hours

 ConditionsComfort  
Time TempWeatherWind HumidityBarometerVisibility
9:53 PM
Dec 17
28 °FOvercast.9 mph72%30.20 "Hg10 mi
8:53 PM28 °FLight snow. Overcast.8 mph69%30.20 "Hg9 mi
7:53 PM28 °FLight snow. Overcast.12 mph69%30.20 "Hg9 mi
6:53 PM27 °FLight snow. Overcast.12 mph69%30.19 "Hg9 mi
5:53 PM27 °FLight snow. Overcast.14 mph72%30.18 "Hg9 mi
4:53 PM27 °FLight snow. Overcast.16 mph69%30.16 "Hg9 mi
3:53 PM27 °FLight snow. Cloudy.15 mph81%30.15 "Hg2 mi
2:53 PM28 °FLight snow. Cloudy.14 mph81%30.13 "Hg1 mi
1:53 PM29 °FLight snow. Overcast.20 mph72%30.12 "Hg9 mi
12:53 PM29 °FLight snow. Overcast.13 mph69%30.13 "Hg7 mi
11:53 AM30 °FLight snow. More clouds than sun.17 mph69%30.14 "Hg8 mi
10:53 AM30 °FLight snow. Overcast.18 mph69%30.15 "Hg9 mi
9:53 AM30 °FLight snow. Overcast.13 mph75%30.13 "Hg5 mi
8:53 AM30 °FLight snow. Overcast.16 mph75%30.12 "Hg9 mi
7:53 AM30 °FOvercast.18 mph75%30.12 "Hg10 mi
6:53 AM30 °FOvercast.15 mph75%30.10 "Hg10 mi
5:53 AM30 °FOvercast.17 mph75%30.08 "Hg10 mi
4:53 AM30 °FOvercast.13 mphN/A30.06 "Hg10 mi
3:53 AM30 °FOvercast.16 mphN/A30.04 "Hg10 mi
2:53 AM32 °FOvercast.22 mphN/A30.03 "Hg10 mi
1:53 AM32 °FOvercast.15 mphN/A30.01 "Hg10 mi
12:53 AM34 °FOvercast.15 mphN/A29.99 "Hg10 mi
11:53 PM
Dec 16
33 °FMostly cloudy.14 mph92%29.98 "Hg10 mi
Weather by CustomWeather, © 2014

See weather overviewHow to use our weather pages